CZ-2C R/B

基本信息
目录编号:
48862
目录名称:
CZ-2C R/B
国际标识:
2021-055C
轨道中心:
EARTH
物体状态:
在轨
发射日期:
2021-06-18 UTC
国别:
中国 (CN)
轨道信息
数据来源: 国际轨道数据
星历时间: 2026-09-11T07:23:37+0800
半长轴: 6980.598km
偏心率: 0.0068015
轨道倾角: 35.070°
近地点辐角: 277.752°
升交点赤经: 194.805°
平近点角: 81.547°
近地点: 554.982km
远地点: 649.94km
周期: 96.738分钟
每日圈数: 14.885516
详细信息
发射场:
XSC
轨道高度:
LEO
数据来源:
AOE Integration Group
参考系:
TEME
时间系统:
UTC
历元类型:
SGP4
2D轨道图
3D轨道图
轨道高度分析图
轨道倾角分析图
轨道综合分析图
查看轨道综合分析图